Location: Asheville, NC
(35.6000°N, 82.5500°W)
Time: 10:53:16
(UTC-04:00)

Vanguard 2 Rocket - Pass Details

Date: 10 February 2018
Orbit: 553 x 3327 km, 32.9° (Epoch: 25 May)

Event Time Altitude Azimuth Distance (km) Brightness Sun altitude
Rises 00:51:17 0° 226° (SW) 6,055 - -68.7°
Reaches altitude 10° 00:54:57 10° 221° (SW) 5,345 - -68.6°
Maximum altitude 01:11:40 55° 150° (SSE) 3,694 - -67.9°
Exits shadow 01:23:44 28° 90° (E) 4,858 10.4 -67.0°
Drops below altitude 10° 01:30:48 10° 80° (E) 6,049 11.2 -66.3°
Sets 01:35:14 0° 76° (ENE) 6,866 11.6 -65.9°
